TimePDT,TemperatureF,Dew PointF,Humidity,Sea Level PressureIn,VisibilityMPH,Wind Direction,Wind SpeedMPH,Gust SpeedMPH,PrecipitationIn,Events,Conditions,WindDirDegrees,DateUTC
12:53 AM,57.9,39.9,51,29.83,10.0,SE,10.4,24.2,N/A,,Clear,130,2013-09-15 07:53:00
1:53 AM,57.0,39.9,53,29.83,10.0,ESE,10.4,20.7,N/A,,Clear,120,2013-09-15 08:53:00
2:53 AM,55.9,41.0,57,29.82,10.0,SE,10.4,19.6,N/A,,Clear,130,2013-09-15 09:53:00
3:53 AM,55.0,42.1,62,29.83,10.0,ESE,11.5,23.0,N/A,,Clear,120,2013-09-15 10:53:00
4:53 AM,55.0,42.1,62,29.82,10.0,SE,13.8,25.3,N/A,,Clear,130,2013-09-15 11:53:00
5:53 AM,54.0,42.1,64,29.82,10.0,SE,15.0,27.6,N/A,,Clear,130,2013-09-15 12:53:00
6:53 AM,54.0,43.0,66,29.83,10.0,SE,15.0,27.6,N/A,,Clear,130,2013-09-15 13:53:00
7:53 AM,55.0,43.0,64,29.82,10.0,ESE,12.7,25.3,N/A,,Clear,120,2013-09-15 14:53:00
8:53 AM,59.0,44.1,58,29.81,10.0,SE,10.4,19.6,N/A,,Clear,130,2013-09-15 15:53:00
9:53 AM,61.0,45.0,56,29.81,10.0,Variable,6.9,16.1,N/A,,Clear,0,2013-09-15 16:53:00
10:53 AM,64.9,46.0,50,29.79,10.0,Variable,3.5,-,N/A,,Clear,0,2013-09-15 17:53:00
11:53 AM,64.9,45.0,48,29.79,10.0,Variable,5.8,-,N/A,,Clear,0,2013-09-15 18:53:00
12:53 PM,70.0,46.0,42,29.76,10.0,Variable,5.8,-,N/A,,Clear,0,2013-09-15 19:53:00
1:53 PM,70.0,45.0,41,29.75,10.0,Variable,4.6,-,N/A,,Scattered Clouds,0,2013-09-15 20:53:00
2:53 PM,69.1,45.0,42,29.74,10.0,Variable,3.5,-,N/A,,Partly Cloudy,0,2013-09-15 21:53:00
3:53 PM,69.1,45.0,42,29.73,10.0,Variable,3.5,-,N/A,,Mostly Cloudy,0,2013-09-15 22:53:00
4:53 PM,68.0,45.0,43,29.71,10.0,Calm,Calm,-,N/A,,Mostly Cloudy,0,2013-09-15 23:53:00
5:53 PM,68.0,44.1,42,29.70,10.0,Variable,3.5,-,N/A,,Mostly Cloudy,0,2013-09-16 00:53:00
6:53 PM,66.0,44.1,45,29.69,10.0,SE,4.6,-,N/A,,Clear,130,2013-09-16 01:53:00
7:53 PM,66.0,44.1,45,29.68,10.0,SE,5.8,-,N/A,,Clear,140,2013-09-16 02:53:00
8:53 PM,64.9,44.1,47,29.68,10.0,SE,5.8,-,N/A,,Clear,140,2013-09-16 03:53:00
9:53 PM,64.0,44.1,48,29.65,10.0,SSE,5.8,-,N/A,,Clear,150,2013-09-16 04:53:00
10:53 PM,63.0,44.1,50,29.64,10.0,Variable,4.6,-,N/A,,Clear,0,2013-09-16 05:53:00
11:53 PM,54.0,50.0,86,29.72,3.0,NW,8.1,-,0.01,Rain,Light Rain,320,2013-09-16 06:53:00